| time (UTC) | temp F | wind direction | speed knots | gust knots | rain 1hr in | rain 24hr in | rain mn in | humidity % | barometer mb |
| 20260903124241 | 79 | 148 | 1.7 | 2.6 | 0.00 | 0.00 | 0.00 | 84 | 1013.1 |
| 20260903123741 | 79 | 145 | 1.7 | 3.5 | 0.00 | 0.00 | 0.00 | 84 | 1013.0 |
| 20260903123241 | 79 | 146 | 1.7 | 3.5 | 0.00 | 0.00 | 0.00 | 84 | 1012.9 |
| 20260903122740 | 79 | 149 | 1.7 | 3.5 | 0.00 | 0.00 | 0.00 | 84 | 1012.8 |
| 20260903122241 | 79 | 151 | 1.7 | 3.5 | 0.00 | 0.00 | 0.00 | 84 | 1012.8 |
| 20260903121742 | 79 | 155 | 1.7 | 3.5 | 0.00 | 0.00 | 0.00 | 83 | 1012.7 |
| 20260903121240 | 79 | 158 | 0.9 | 3.5 | 0.00 | 0.00 | 0.00 | 83 | 1012.7 |
| 20260903120740 | 79 | 161 | 0.9 | 3.5 | 0.00 | 0.00 | 0.00 | 83 | 1012.7 |
| 20260903120240 | 79 | 159 | 1.7 | 3.5 | 0.00 | 0.00 | 0.00 | 83 | 1012.6 |
| 20260903115740 | 79 | 163 | 1.7 | 3.5 | 0.00 | 0.00 | 0.00 | 83 | 1012.7 |
| 20260903115241 | 79 | 163 | 1.7 | 3.5 | 0.00 | 0.00 | 0.00 | 83 | 1012.7 |
| 20260903114741 | 79 | 162 | 0.9 | 3.5 | 0.00 | 0.00 | 0.00 | 83 | 1012.6 |
| 20260903114240 | 79 | 162 | 1.7 | 4.3 | 0.00 | 0.00 | 0.00 | 82 | 1012.6 |
| 20260903113740 | 79 | 156 | 1.7 | 4.3 | 0.00 | 0.00 | 0.00 | 82 | 1012.5 |
| 20260903112740 | 79 | 166 | 0.9 | 3.5 | 0.00 | 0.00 | 0.00 | 82 | 1012.4 |
| 20260903112241 | 79 | 165 | 1.7 | 5.2 | 0.00 | 0.00 | 0.00 | 82 | 1012.3 |
| 20260903111741 | 79 | 162 | 1.7 | 5.2 | 0.00 | 0.00 | 0.00 | 82 | 1012.3 |
| 20260903111240 | 79 | 162 | 1.7 | 4.3 | 0.00 | 0.00 | 0.00 | 82 | 1012.3 |
| 20260903110741 | 79 | 162 | 1.7 | 4.3 | 0.00 | 0.00 | 0.00 | 82 | 1012.2 |
| 20260903110241 | 79 | 160 | 1.7 | 7.0 | 0.00 | 0.00 | 0.00 | 81 | 1012.2 |
| 20260903105740 | 79 | 163 | 1.7 | 7.0 | 0.00 | 0.00 | 0.00 | 81 | 1012.2 |
| 20260903105241 | 79 | 169 | 1.7 | 3.5 | 0.00 | 0.00 | 0.00 | 81 | 1012.2 |
| 20260903104741 | 79 | 163 | 1.7 | 4.3 | 0.00 | 0.00 | 0.00 | 81 | 1012.3 |
| 20260903103741 | 79 | 157 | 1.7 | 4.3 | 0.00 | 0.00 | 0.00 | 81 | 1012.3 |
| 20260903103240 | 79 | 153 | 1.7 | 4.3 | 0.00 | 0.00 | 0.00 | 81 | 1012.3 |
| 20260903102240 | 79 | 148 | 1.7 | 3.5 | 0.00 | 0.00 | 0.00 | 81 | 1012.4 |
| 20260903101742 | 79 | 149 | 1.7 | 3.5 | 0.00 | 0.00 | 0.00 | 81 | 1012.3 |
| 20260903100741 | 80 | 158 | 1.7 | 4.3 | 0.00 | 0.00 | 0.00 | 80 | 1012.3 |
| 20260903095742 | 80 | 170 | 0.9 | 3.5 | 0.00 | 0.00 | 0.00 | 80 | 1012.2 |
| 20260903095242 | 79 | 175 | 0.9 | 2.6 | 0.00 | 0.00 | 0.00 | 80 | 1012.2 |
| 20260903094741 | 79 | 174 | 0.9 | 3.5 | 0.00 | 0.00 | 0.00 | 80 | 1012.2 |
| 20260903094241 | 79 | 173 | 1.7 | 3.5 | 0.00 | 0.00 | 0.00 | 80 | 1012.2 |
| 20260903093242 | 79 | 173 | 1.7 | 3.5 | 0.00 | 0.00 | 0.00 | 80 | 1012.2 |
| 20260903092740 | 79 | 171 | 0.9 | 4.3 | 0.00 | 0.00 | 0.00 | 80 | 1012.2 |
| 20260903091740 | 79 | 169 | 0.9 | 4.3 | 0.00 | 0.00 | 0.00 | 80 | 1012.2 |
| 20260903091241 | 79 | 167 | 0.9 | 4.3 | 0.00 | 0.00 | 0.00 | 79 | 1012.3 |
| 20260903090741 | 79 | 158 | 0.9 | 3.5 | 0.00 | 0.00 | 0.00 | 79 | 1012.5 |
| 20260903090241 | 79 | 153 | 1.7 | 3.5 | 0.00 | 0.00 | 0.00 | 79 | 1012.5 |
| 20260903085241 | 79 | 155 | 1.7 | 3.5 | 0.00 | 0.00 | 0.00 | 79 | 1012.5 |
| 20260903084740 | 80 | 163 | 0.9 | 3.5 | 0.00 | 0.00 | 0.00 | 79 | 1012.4 |
| 20260903083740 | 79 | 173 | 0.9 | 2.6 | 0.00 | 0.00 | 0.00 | 79 | 1012.4 |
| 20260903083241 | 79 | 178 | 0.9 | 2.6 | 0.00 | 0.00 | 0.00 | 79 | 1012.4 |
| 20260903082741 | 79 | 179 | 0.9 | 1.7 | 0.00 | 0.00 | 0.00 | 79 | 1012.4 |
| 20260903082241 | 80 | 172 | 0.9 | 2.6 | 0.00 | 0.00 | 0.00 | 79 | 1012.5 |
| 20260903081740 | 80 | 164 | 0.9 | 2.6 | 0.00 | 0.00 | 0.00 | 79 | 1012.5 |
| 20260903080741 | 80 | 166 | 0.9 | 4.3 | 0.00 | 0.00 | 0.00 | 79 | 1012.6 |
| 20260903080241 | 79 | 166 | 0.9 | 4.3 | 0.00 | 0.00 | 0.00 | 79 | 1012.6 |
| 20260903075741 | 79 | 176 | 0.9 | 2.6 | 0.00 | 0.00 | 0.00 | 79 | 1012.6 |
| 20260903075241 | 79 | 171 | 0.9 | 3.5 | 0.00 | 0.00 | 0.00 | 79 | 1012.6 |
| 20260903074741 | 79 | 177 | 0.9 | 3.5 | 0.00 | 0.00 | 0.00 | 79 | 1012.6 |
| 20260903074242 | 79 | 189 | 0.9 | 1.7 | 0.00 | 0.00 | 0.00 | 79 | 1012.6 |
| 20260903073242 | 80 | 162 | 0.9 | 2.6 | 0.00 | 0.00 | 0.00 | 79 | 1012.6 |
| 20260903072740 | 80 | 163 | 0.9 | 1.7 | 0.00 | 0.00 | 0.00 | 79 | 1012.6 |
| 20260903072241 | 80 | 179 | 0.9 | 1.7 | 0.00 | 0.00 | 0.00 | 78 | 1012.5 |
| 20260903071741 | 80 | 176 | 0.9 | 1.7 | 0.00 | 0.00 | 0.00 | 78 | 1012.6 |
| 20260903071241 | 80 | 170 | 0.9 | 1.7 | 0.00 | 0.00 | 0.00 | 78 | 1012.5 |
| 20260903070740 | 80 | 173 | 0.9 | 2.6 | 0.00 | 0.00 | 0.00 | 78 | 1012.5 |
| 20260903070241 | 80 | 177 | 0.9 | 3.5 | 0.00 | 0.00 | 0.00 | 78 | 1012.5 |
| 20260903065741 | 80 | 174 | 0.9 | 3.5 | 0.00 | 0.00 | 0.00 | 77 | 1012.5 |
| 20260903064741 | 80 | 166 | 0.9 | 1.7 | 0.00 | 0.00 | 0.00 | 77 | 1012.5 |
| 20260903064241 | 80 | 169 | 0.9 | 1.7 | 0.00 | 0.00 | 0.00 | 77 | 1012.6 |
| 20260903063740 | 80 | 176 | 0.9 | 2.6 | 0.00 | 0.00 | 0.00 | 76 | 1012.6 |
| 20260903062740 | 81 | 175 | 0.9 | 2.6 | 0.00 | 0.00 | 0.00 | 76 | 1012.7 |
| 20260903062241 | 81 | 171 | 0.9 | 3.5 | 0.00 | 0.00 | 0.00 | 76 | 1012.7 |
| 20260903061741 | 81 | 172 | 0.9 | 3.5 | 0.00 | 0.00 | 0.00 | 75 | 1012.7 |
| 20260903061241 | 81 | 176 | 0.9 | 1.7 | 0.00 | 0.00 | 0.00 | 75 | 1012.7 |
| 20260903060741 | 81 | 176 | 0.9 | 2.6 | 0.00 | 0.00 | 0.00 | 75 | 1012.7 |
| 20260903060241 | 81 | 175 | 0.9 | 2.6 | 0.00 | 0.00 | 0.00 | 75 | 1012.8 |
| 20260903055742 | 81 | 0 | 0.0 | 1.7 | 0.00 | 0.00 | 0.00 | 75 | 1012.8 |
| 20260903055240 | 81 | 0 | 0.0 | 0.9 | 0.00 | 0.00 | 0.00 | 75 | 1012.8 |
| 20260903054741 | 81 | 163 | 0.9 | 1.7 | 0.00 | 0.00 | 0.00 | 75 | 1012.8 |
| 20260903054241 | 81 | 162 | 0.9 | 1.7 | 0.00 | 0.00 | 0.00 | 75 | 1012.8 |
| 20260903053741 | 81 | 161 | 0.9 | 1.7 | 0.00 | 0.00 | 0.00 | 75 | 1012.8 |
| 20260903053241 | 81 | 158 | 0.9 | 2.6 | 0.00 | 0.00 | 0.00 | 74 | 1012.9 |
| 20260903052241 | 82 | 155 | 0.9 | 3.5 | 0.00 | 0.00 | 0.00 | 74 | 1012.8 |
| 20260903051741 | 81 | 159 | 0.9 | 2.6 | 0.00 | 0.00 | 0.00 | 75 | 1012.7 |
| 20260903051241 | 81 | 0 | 0.0 | 2.6 | 0.00 | 0.00 | 0.00 | 76 | 1012.8 |
| 20260903050742 | 81 | 0 | 0.0 | 1.7 | 0.00 | 0.00 | 0.00 | 76 | 1012.8 |
| 20260903050241 | 81 | 152 | 0.9 | 1.7 | 0.00 | 0.00 | 0.00 | 75 | 1012.7 |
| 20260903045241 | 82 | 152 | 0.9 | 1.7 | 0.00 | 0.00 | 0.00 | 75 | 1012.8 |
| 20260903044741 | 82 | 152 | 0.9 | 1.7 | 0.00 | 0.00 | 0.00 | 74 | 1012.8 |
| 20260903044241 | 82 | 152 | 0.9 | 1.7 | 0.00 | 0.00 | 0.00 | 74 | 1012.8 |
| 20260903043741 | 82 | 152 | 0.9 | 1.7 | 0.00 | 0.00 | 0.00 | 74 | 1012.9 |
| 20260903043241 | 82 | 146 | 1.7 | 3.5 | 0.00 | 0.00 | 0.00 | 74 | 1013.0 |
| 20260903042742 | 82 | 140 | 1.7 | 3.5 | 0.00 | 0.00 | 0.00 | 73 | 1013.1 |
| 20260903041741 | 82 | 138 | 1.7 | 3.5 | 0.00 | 0.00 | 0.00 | 73 | 1013.2 |
| 20260903040241 | 83 | 152 | 2.6 | 5.2 | 0.00 | 0.00 | 0.00 | 73 | 1013.3 |
| 20260903035741 | 83 | 151 | 2.6 | 5.2 | 0.00 | 0.00 | 0.00 | 72 | 1013.2 |
| 20260903035241 | 83 | 148 | 2.6 | 5.2 | 0.00 | 0.00 | 0.00 | 71 | 1013.2 |
| 20260903034741 | 84 | 149 | 2.6 | 4.3 | 0.00 | 0.00 | 0.00 | 70 | 1013.3 |
| 20260903034242 | 84 | 145 | 1.7 | 4.3 | 0.00 | 0.00 | 0.00 | 68 | 1013.2 |
| 20260903033741 | 84 | 138 | 1.7 | 4.3 | 0.00 | 0.00 | 0.00 | 68 | 1013.2 |
| 20260903033241 | 84 | 136 | 1.7 | 4.3 | 0.00 | 0.00 | 0.00 | 66 | 1013.1 |
| 20260903032742 | 84 | 136 | 1.7 | 4.3 | 0.00 | 0.00 | 0.00 | 66 | 1012.9 |
| 20260903032241 | 84 | 132 | 1.7 | 2.6 | 0.00 | 0.00 | 0.00 | 65 | 1012.8 |
| 20260903031742 | 84 | 126 | 1.7 | 2.6 | 0.00 | 0.00 | 0.00 | 64 | 1012.9 |
| 20260903031241 | 84 | 128 | 1.7 | 4.3 | 0.00 | 0.00 | 0.00 | 64 | 1012.8 |
| 20260903030741 | 85 | 135 | 2.6 | 4.3 | 0.00 | 0.00 | 0.00 | 64 | 1012.8 |
| 20260903030241 | 85 | 137 | 1.7 | 3.5 | 0.00 | 0.00 | 0.00 | 65 | 1012.9 |
| 20260903025742 | 85 | 134 | 1.7 | 3.5 | 0.00 | 0.00 | 0.00 | 65 | 1012.8 |
| 20260903025242 | 85 | 137 | 2.6 | 4.3 | 0.00 | 0.00 | 0.00 | 65 | 1012.8 |
| 20260903024741 | 85 | 139 | 2.6 | 4.3 | 0.00 | 0.00 | 0.00 | 65 | 1012.7 |
| 20260903024242 | 85 | 138 | 1.7 | 3.5 | 0.00 | 0.00 | 0.00 | 65 | 1012.7 |
| 20260903023742 | 86 | 138 | 1.7 | 5.2 | 0.00 | 0.00 | 0.00 | 64 | 1012.6 |
| 20260903022742 | 86 | 145 | 1.7 | 3.5 | 0.00 | 0.00 | 0.00 | 64 | 1012.4 |
| 20260903022241 | 86 | 152 | 1.7 | 3.5 | 0.00 | 0.00 | 0.00 | 63 | 1012.3 |
| 20260903021741 | 86 | 154 | 1.7 | 3.5 | 0.00 | 0.00 | 0.00 | 63 | 1012.2 |
| 20260903021241 | 86 | 144 | 1.7 | 3.5 | 0.00 | 0.00 | 0.00 | 63 | 1012.1 |
| 20260903020741 | 86 | 129 | 1.7 | 3.5 | 0.00 | 0.00 | 0.00 | 62 | 1012.0 |
| 20260903020241 | 87 | 133 | 1.7 | 3.5 | 0.00 | 0.00 | 0.00 | 62 | 1011.9 |
| 20260903015742 | 87 | 132 | 1.7 | 3.5 | 0.00 | 0.00 | 0.00 | 61 | 1011.7 |
| 20260903015241 | 87 | 117 | 1.7 | 2.6 | 0.00 | 0.00 | 0.00 | 60 | 1011.6 |
| 20260903014742 | 87 | 109 | 1.7 | 2.6 | 0.00 | 0.00 | 0.00 | 60 | 1011.5 |
| 20260903014241 | 88 | 112 | 1.7 | 5.2 | 0.00 | 0.00 | 0.00 | 59 | 1011.4 |
| 20260903013741 | 88 | 114 | 1.7 | 5.2 | 0.00 | 0.00 | 0.00 | 59 | 1011.4 |
| 20260903013241 | 88 | 124 | 1.7 | 5.2 | 0.00 | 0.00 | 0.00 | 59 | 1011.4 |
| 20260903012742 | 88 | 129 | 1.7 | 4.3 | 0.00 | 0.00 | 0.00 | 59 | 1011.4 |
| 20260903012241 | 88 | 123 | 1.7 | 3.5 | 0.00 | 0.00 | 0.00 | 58 | 1011.4 |
| 20260903011742 | 88 | 119 | 1.7 | 5.2 | 0.00 | 0.00 | 0.00 | 58 | 1011.3 |
| 20260903011241 | 89 | 120 | 1.7 | 5.2 | 0.00 | 0.00 | 0.00 | 57 | 1011.3 |
| 20260903010741 | 89 | 117 | 1.7 | 4.3 | 0.00 | 0.00 | 0.00 | 57 | 1011.2 |
| 20260903010241 | 89 | 116 | 1.7 | 3.5 | 0.00 | 0.00 | 0.00 | 56 | 1011.1 |
| 20260903005741 | 90 | 122 | 1.7 | 3.5 | 0.00 | 0.00 | 0.00 | 56 | 1011.1 |
| 20260903005242 | 90 | 119 | 1.7 | 3.5 | 0.00 | 0.00 | 0.00 | 55 | 1011.1 |
| 20260903004742 | 90 | 112 | 1.7 | 3.5 | 0.00 | 0.00 | 0.00 | 54 | 1011.1 |
| 20260903004243 | 91 | 113 | 1.7 | 4.3 | 0.00 | 0.00 | 0.00 | 53 | 1011.1 |
| 20260903002741 | 93 | 116 | 2.6 | 5.2 | 0.00 | 0.00 | 0.00 | 49 | 1011.0 |
| 20260903002241 | 94 | 117 | 2.6 | 5.2 | 0.00 | 0.00 | 0.00 | 48 | 1010.7 |
| 20260903001742 | 95 | 117 | 1.7 | 6.1 | 0.00 | 0.00 | 0.00 | 46 | 1010.7 |
| 20260903001242 | 96 | 103 | 1.7 | 6.1 | 0.00 | 0.00 | 0.00 | 44 | 1010.6 |
| 20260903000741 | 96 | 105 | 2.6 | 7.0 | 0.00 | 0.00 | 0.00 | 43 | 1010.6 |
| 20260903000242 | 97 | 111 | 1.7 | 7.0 | 0.00 | 0.00 | 0.00 | 42 | 1010.6 |
| 20260902235741 | 99 | 108 | 1.7 | 6.1 | 0.00 | 0.00 | 0.00 | 40 | 1010.6 |
| 20260902234742 | 102 | 73 | 0.9 | 4.3 | 0.00 | 0.00 | 0.00 | 35 | 1010.4 |
| 20260902234241 | 102 | 75 | 0.9 | 3.5 | 0.00 | 0.00 | 0.00 | 33 | 1010.3 |
| 20260902233741 | 102 | 80 | 1.7 | 3.5 | 0.00 | 0.00 | 0.00 | 33 | 1010.2 |
| 20260902233241 | 102 | 75 | 1.7 | 7.0 | 0.00 | 0.00 | 0.00 | 33 | 1010.2 |
| 20260902232743 | 102 | 39 | 2.6 | 7.0 | 0.00 | 0.00 | 0.00 | 32 | 1010.2 |
| 20260902232241 | 103 | 37 | 2.6 | 7.0 | 0.00 | 0.00 | 0.00 | 32 | 1010.2 |
| 20260902231741 | 103 | 59 | 1.7 | 5.2 | 0.00 | 0.00 | 0.00 | 32 | 1010.2 |
| 20260902231242 | 103 | 68 | 1.7 | 4.3 | 0.00 | 0.00 | 0.00 | 32 | 1010.2 |
| 20260902230741 | 103 | 42 | 2.6 | 7.0 | 0.00 | 0.00 | 0.00 | 32 | 1010.2 |
| 20260902230241 | 103 | 34 | 2.6 | 7.0 | 0.00 | 0.00 | 0.00 | 32 | 1010.2 |
| 20260902225741 | 103 | 31 | 1.7 | 6.1 | 0.00 | 0.00 | 0.00 | 32 | 1010.2 |
| 20260902224742 | 103 | 77 | 1.7 | 5.2 | 0.00 | 0.00 | 0.00 | 32 | 1010.1 |
| 20260902223742 | 103 | 17 | 3.5 | 10.4 | 0.00 | 0.00 | 0.00 | 32 | 1010.1 |
| 20260902223241 | 103 | 17 | 4.3 | 9.6 | 0.00 | 0.00 | 0.00 | 31 | 1010.2 |
| 20260902222243 | 104 | 7 | 1.7 | 7.8 | 0.00 | 0.00 | 0.00 | 31 | 1010.1 |
| 20260902221741 | 104 | 21 | 1.7 | 4.3 | 0.00 | 0.00 | 0.00 | 31 | 1010.2 |
| 20260902221241 | 104 | 28 | 3.5 | 9.6 | 0.00 | 0.00 | 0.00 | 31 | 1010.2 |
| 20260902220741 | 104 | 22 | 3.5 | 9.6 | 0.00 | 0.00 | 0.00 | 31 | 1010.3 |
| 20260902220242 | 103 | 20 | 2.6 | 9.6 | 0.00 | 0.00 | 0.00 | 31 | 1010.4 |
| 20260902215241 | 102 | 13 | 3.5 | 7.8 | 0.00 | 0.00 | 0.00 | 33 | 1010.4 |
| 20260902214742 | 103 | 15 | 3.5 | 8.7 | 0.00 | 0.00 | 0.00 | 32 | 1010.4 |
| 20260902214241 | 104 | 23 | 3.5 | 9.6 | 0.00 | 0.00 | 0.00 | 32 | 1010.4 |
| 20260902213741 | 103 | 29 | 2.6 | 9.6 | 0.00 | 0.00 | 0.00 | 31 | 1010.5 |
| 20260902213241 | 102 | 53 | 1.7 | 7.8 | 0.00 | 0.00 | 0.00 | 32 | 1010.5 |
| 20260902212241 | 101 | 18 | 2.6 | 10.4 | 0.00 | 0.00 | 0.00 | 33 | 1010.6 |
| 20260902211743 | 101 | 20 | 3.5 | 10.4 | 0.00 | 0.00 | 0.00 | 34 | 1010.8 |
| 20260902211241 | 101 | 33 | 3.5 | 8.7 | 0.00 | 0.00 | 0.00 | 33 | 1010.7 |
| 20260902210742 | 103 | 20 | 2.6 | 8.7 | 0.00 | 0.00 | 0.00 | 32 | 1010.7 |
| 20260902210241 | 104 | 335 | 1.7 | 6.1 | 0.00 | 0.00 | 0.00 | 32 | 1010.8 |
| 20260902205241 | 103 | 359 | 2.6 | 7.8 | 0.00 | 0.00 | 0.00 | 31 | 1011.0 |
| 20260902204742 | 103 | 16 | 3.5 | 10.4 | 0.00 | 0.00 | 0.00 | 31 | 1011.1 |
| 20260902204242 | 104 | 20 | 2.6 | 10.4 | 0.00 | 0.00 | 0.00 | 32 | 1011.1 |
| 20260902203742 | 104 | 355 | 1.7 | 4.3 | 0.00 | 0.00 | 0.00 | 33 | 1011.1 |
| 20260902202241 | 103 | 3 | 1.7 | 7.0 | 0.00 | 0.00 | 0.00 | 34 | 1011.4 |
| 20260902201742 | 102 | 13 | 3.5 | 8.7 | 0.00 | 0.00 | 0.00 | 33 | 1011.5 |
| 20260902200742 | 103 | 9 | 1.7 | 8.7 | 0.00 | 0.00 | 0.00 | 33 | 1011.6 |
| 20260902200242 | 102 | 347 | 1.7 | 4.3 | 0.00 | 0.00 | 0.00 | 35 | 1011.6 |
| 20260902195742 | 101 | 10 | 2.6 | 6.1 | 0.00 | 0.00 | 0.00 | 36 | 1011.7 |
| 20260902194742 | 100 | 4 | 1.7 | 7.0 | 0.00 | 0.00 | 0.00 | 38 | 1011.9 |
| 20260902194241 | 100 | 2 | 2.6 | 7.0 | 0.00 | 0.00 | 0.00 | 37 | 1012.0 |
| 20260902193742 | 101 | 1 | 2.6 | 7.0 | 0.00 | 0.00 | 0.00 | 36 | 1012.1 |
| 20260902193243 | 102 | 13 | 1.7 | 5.2 | 0.00 | 0.00 | 0.00 | 34 | 1012.2 |
| 20260902192742 | 102 | 50 | 1.7 | 6.1 | 0.00 | 0.00 | 0.00 | 36 | 1012.2 |
| 20260902191742 | 101 | 30 | 2.6 | 10.4 | 0.00 | 0.00 | 0.00 | 37 | 1012.3 |
| 20260902191241 | 102 | 22 | 3.5 | 10.4 | 0.00 | 0.00 | 0.00 | 36 | 1012.5 |
| 20260902190742 | 102 | 34 | 2.6 | 8.7 | 0.00 | 0.00 | 0.00 | 36 | 1012.5 |
| 20260902185741 | 101 | 28 | 3.5 | 8.7 | 0.00 | 0.00 | 0.00 | 37 | 1012.7 |
| 20260902185242 | 100 | 18 | 4.3 | 9.6 | 0.00 | 0.00 | 0.00 | 36 | 1012.8 |
| 20260902184742 | 100 | 22 | 3.5 | 9.6 | 0.00 | 0.00 | 0.00 | 36 | 1012.9 |
| 20260902184242 | 101 | 50 | 1.7 | 8.7 | 0.00 | 0.00 | 0.00 | 38 | 1013.0 |
| 20260902183741 | 100 | 41 | 1.7 | 7.0 | 0.00 | 0.00 | 0.00 | 38 | 1013.1 |
| 20260902183242 | 100 | 39 | 1.7 | 7.0 | 0.00 | 0.00 | 0.00 | 39 | 1013.2 |
| 20260902181742 | 100 | 26 | 2.6 | 10.4 | 0.00 | 0.00 | 0.00 | 39 | 1013.3 |
| 20260902181241 | 99 | 18 | 3.5 | 11.3 | 0.00 | 0.00 | 0.00 | 40 | 1013.5 |
| 20260902180742 | 100 | 17 | 2.6 | 11.3 | 0.00 | 0.00 | 0.00 | 39 | 1013.6 |
| 20260902180242 | 100 | 2 | 2.6 | 8.7 | 0.00 | 0.00 | 0.00 | 40 | 1013.7 |
| 20260902175742 | 100 | 8 | 2.6 | 8.7 | 0.00 | 0.00 | 0.00 | 39 | 1013.8 |
| 20260902175241 | 100 | 13 | 2.6 | 6.1 | 0.00 | 0.00 | 0.00 | 40 | 1013.9 |
| 20260902174742 | 99 | 22 | 2.6 | 8.7 | 0.00 | 0.00 | 0.00 | 42 | 1014.0 |
| 20260902174242 | 99 | 24 | 2.6 | 8.7 | 0.00 | 0.00 | 0.00 | 42 | 1014.2 |
| 20260902173742 | 98 | 13 | 2.6 | 8.7 | 0.00 | 0.00 | 0.00 | 42 | 1014.2 |
| 20260902173242 | 97 | 9 | 2.6 | 7.8 | 0.00 | 0.00 | 0.00 | 42 | 1014.4 |
| 20260902172742 | 97 | 305 | 2.6 | 6.1 | 0.00 | 0.00 | 0.00 | 44 | 1014.5 |
| 20260902172241 | 96 | 250 | 2.6 | 7.0 | 0.00 | 0.00 | 0.00 | 45 | 1014.6 |
| 20260902171742 | 97 | 254 | 2.6 | 7.0 | 0.00 | 0.00 | 0.00 | 44 | 1014.7 |
| 20260902171241 | 96 | 325 | 2.6 | 7.0 | 0.00 | 0.00 | 0.00 | 46 | 1014.9 |
| 20260902170241 | 96 | 161 | 1.7 | 3.5 | 0.00 | 0.00 | 0.00 | 47 | 1014.9 |
| 20260902165742 | 96 | 345 | 1.7 | 7.8 | 0.00 | 0.00 | 0.00 | 47 | 1015.0 |
| 20260902165241 | 95 | 14 | 2.6 | 7.8 | 0.00 | 0.00 | 0.00 | 48 | 1015.1 |
| 20260902164742 | 95 | 33 | 2.6 | 7.0 | 0.00 | 0.00 | 0.00 | 47 | 1015.1 |
| 20260902163241 | 94 | 135 | 1.7 | 4.3 | 0.00 | 0.00 | 0.00 | 49 | 1015.3 |
| 20260902162743 | 93 | 212 | 1.7 | 4.3 | 0.00 | 0.00 | 0.00 | 51 | 1015.4 |
| 20260902162242 | 93 | 263 | 1.7 | 3.5 | 0.00 | 0.00 | 0.00 | 50 | 1015.4 |
| 20260902161742 | 94 | 275 | 1.7 | 3.5 | 0.00 | 0.00 | 0.00 | 50 | 1015.4 |
| 20260902161243 | 94 | 25 | 1.7 | 4.3 | 0.00 | 0.00 | 0.00 | 51 | 1015.5 |
| 20260902160742 | 93 | 25 | 1.7 | 4.3 | 0.00 | 0.00 | 0.00 | 50 | 1015.4 |
| 20260902160242 | 93 | 14 | 1.7 | 4.3 | 0.00 | 0.00 | 0.00 | 51 | 1015.5 |
| 20260902155741 | 92 | 272 | 1.7 | 3.5 | 0.00 | 0.00 | 0.00 | 52 | 1015.5 |
| 20260902155242 | 92 | 240 | 1.7 | 3.5 | 0.00 | 0.00 | 0.00 | 54 | 1015.5 |
| 20260902154742 | 92 | 255 | 0.9 | 3.5 | 0.00 | 0.00 | 0.00 | 53 | 1015.4 |
| 20260902154242 | 92 | 347 | 0.9 | 3.5 | 0.00 | 0.00 | 0.00 | 53 | 1015.4 |
| 20260902153742 | 91 | 76 | 0.9 | 3.5 | 0.00 | 0.00 | 0.00 | 54 | 1015.5 |
| 20260902153241 | 90 | 166 | 0.9 | 2.6 | 0.00 | 0.00 | 0.00 | 55 | 1015.5 |
| 20260902152742 | 90 | 167 | 0.9 | 2.6 | 0.00 | 0.00 | 0.00 | 55 | 1015.5 |
| 20260902152242 | 90 | 172 | 0.9 | 2.6 | 0.00 | 0.00 | 0.00 | 56 | 1015.5 |
| 20260902151242 | 89 | 135 | 0.9 | 3.5 | 0.00 | 0.00 | 0.00 | 56 | 1015.5 |
| 20260902150741 | 89 | 133 | 0.9 | 3.5 | 0.00 | 0.00 | 0.00 | 57 | 1015.5 |
| 20260902150242 | 88 | 140 | 0.9 | 3.5 | 0.00 | 0.00 | 0.00 | 58 | 1015.6 |
| 20260902145242 | 88 | 124 | 0.9 | 2.6 | 0.00 | 0.00 | 0.00 | 60 | 1015.6 |
| 20260902144741 | 88 | 115 | 0.9 | 2.6 | 0.00 | 0.00 | 0.00 | 61 | 1015.6 |
| 20260902142743 | 86 | 129 | 0.9 | 3.5 | 0.00 | 0.00 | 0.00 | 63 | 1015.7 |
| 20260902141741 | 86 | 101 | 0.9 | 2.6 | 0.00 | 0.00 | 0.00 | 65 | 1015.7 |
| 20260902141242 | 85 | 110 | 0.9 | 2.6 | 0.00 | 0.00 | 0.00 | 66 | 1015.7 |
| 20260902140743 | 84 | 82 | 0.9 | 2.6 | 0.00 | 0.00 | 0.00 | 67 | 1015.6 |
| 20260902140242 | 84 | 81 | 0.9 | 2.6 | 0.00 | 0.00 | 0.00 | 69 | 1015.5 |
| 20260902135742 | 82 | 73 | 0.9 | 2.6 | 0.00 | 0.00 | 0.00 | 71 | 1015.5 |
| 20260902135244 | 82 | 37 | 0.9 | 2.6 | 0.00 | 0.00 | 0.00 | 73 | 1015.5 |
| 20260902134242 | 80 | 0 | 0.0 | 1.7 | 0.00 | 0.00 | 0.00 | 76 | 1015.4 |
| 20260902133742 | 79 | 45 | 0.9 | 1.7 | 0.00 | 0.00 | 0.00 | 77 | 1015.4 |
| 20260902133243 | 78 | 52 | 0.9 | 1.7 | 0.00 | 0.00 | 0.00 | 78 | 1015.4 |
| 20260902132743 | 78 | 78 | 0.9 | 2.6 | 0.00 | 0.00 | 0.00 | 79 | 1015.4 |
| 20260902132242 | 78 | 0 | 0.0 | 2.6 | 0.00 | 0.00 | 0.00 | 80 | 1015.4 |
| 20260902131242 | 77 | 21 | 0.9 | 2.6 | 0.00 | 0.00 | 0.00 | 80 | 1015.3 |
| 20260902130742 | 77 | 30 | 0.9 | 2.6 | 0.00 | 0.00 | 0.00 | 81 | 1015.3 |
| 20260902130242 | 76 | 39 | 0.9 | 1.7 | 0.00 | 0.00 | 0.00 | 82 | 1015.3 |
| 20260902125742 | 76 | 0 | 0.0 | 1.7 | 0.00 | 0.00 | 0.00 | 82 | 1015.2 |
| 20260902125242 | 76 | 0 | 0.0 | 0.9 | 0.00 | 0.00 | 0.00 | 82 | 1015.2 |
| 20260902124742 | 76 | 0 | 0.0 | 1.7 | 0.00 | 0.00 | 0.00 | 82 | 1015.1 |